Torna al catalogo

COSMOS 367

AttivoMilitareLEO
NORAD 4564·PAYLOAD·🇷🇺 Russia

Lanciato Oct 3, 1970 da Baikonur Cosmodrome

Loading…

Prossimi Passaggi (prossime 24 ore)

TLE

AggiornatoSource: Space-Track

Epoca: Sep 14, 2026, 04:39 UTC

1 04564U 70079A   26257.19377189 -.00000063  00000-0  21433-4 0  9996
2 04564  65.2778 193.0861 0054565  26.2717 334.1092 13.78569553815383

Traccia COSMOS 367 in tempo reale con AllMySat

Download on the App Store